Bloomington, IL (61701)

7:33 PM CDT on May 04, 2015 (GMT -0500)
Across from IWU | | Change Station
CLOSE
Current Station
Personal Weather Station
Location: Bloomington, IL
Elevation: 810 ft
Nearby Weather Stations

Elev 810 ft 40.49 °N, 88.99 °W | Updated 5 minutes ago

Clear
Clear
72.3 °F
Feels Like 73 °F
N
0.0
Wind Variable Wind from ESE
Gusts 0.0 mph

Today
High -- | Low -- °F
--% Chance of Precip.
Yesterday
High -- | Low -- °F
Precip. -- in
5:51 AM 7:54 PM
Full, 99% visible
Pressure 30.10 in
Visibility 10.0 miles
Clouds Mostly Cloudy 7000 ft
Heat Index 73 °F
Dew Point 65 °F
Humidity 77%
Rainfall 0.29 in
Snow Depth Not available.
UV 0 out of 12
Pollen 6.70 out of 12
Air Quality Not available.
Flu Activity Local Activity
METAR KBMI 042356Z 08006KT 10SM BKN070 22/19 A3012 RMK AO2 55003 T02220188 10244 20216 BKN V SCT SLP191

More Conditions Fewer Conditions

Pressure 30.10 in
Visibility 10.0 miles
Clouds Mostly Cloudy 7000 ft
Heat Index 73 °F
Dew Point 65 °F
Humidity 77%
Rainfall 0.29 in
Snow Depth Not available.
UV 0 out of 12
Pollen 6.70 out of 12
Air Quality Not available.
Flu Activity Local Activity
METAR KBMI 042356Z 08006KT 10SM BKN070 22/19 A3012 RMK AO2 55003 T02220188 10244 20216 BKN V SCT SLP191

More Conditions Fewer Conditions

Nepal has a long way to go to dig out and rebuild from a devastating earthquake. We have teamed up with several charities and organizations to make contributing to the relief effort as easy as possible.
How you can help: Portlight Strategies | Red Cross

10-Day Weather Forecast

Almanac

Astronomy

May. 04, 2015 Rise Set
Actual Time
Civil Twilight
Nautical Twilight
Astronomical Twilight
Moon
Length of Visible Light
Length of Day
Tomorrow will be .
, % of the Moon is Illuminated

Today's Extremes

State Highs State Lows

Community

WunderPhotos

Upload Photos

1,818,751 photos uploaded!

WunderBlogs® & News

Nearby

Air Quality

  Air Quality AQ Index Pollutant
Not available.

Snow Depth

Station Depth Elevation

Earthquake Activity

City Distance Mag. Time & Date
Minimum magnitude displayed is 2.5.

Coastal Water Temperatures

Place Temperature

Stations

Nearby Weather Stations

Station Location Temp. Windchill Dew Point Humidity Wind Precip. Elev Updated Type